Home > Weather > Finse > Past weeks

Flag for Norway Past Weather in Finse, Norway — Yesterday and Last 2 Weeks

Now
42 °F

Quite cool.


Feels Like: 38 °F
Forecast: 39 / 49 °F
Wind: 6 mph from Northwest

Location: Finsevatn

Current Time: Jul 31, 2016 at 3:51:09 AM

Latest Report: Jul 31, 2016 at 3:00 AM


Visibility: N/A

Pressure: 29.69 "Hg (25.56 "Hg at 1221m altitude)

Humidity: 87%

Dew Point: 38 °F

Location of FinseLocation

Past Weather in Finse — Graph

°F

Finse Temperature Yesterday

Maximum temperature yesterday: 47 °F (at 2:00 PM)
Minimum temperature yesterday: 42 °F (at 9:00 AM)
Average temperature yesterday: 44 °F

High & Low Weather Summary for the Past Weeks

 TemperatureHumidityPressure
High65 °F (Jul 20, 5:00 PM)96% (Jul 18, 3:00 AM)30.20 "Hg (Jul 18, 3:00 AM)
Low38 °F (Jul 17, 2:00 AM)54% (Jul 20, 4:00 PM)29.65 "Hg (Jul 30, 2:00 PM)
Average49 °F84%29.91 "Hg
* Reported Jul 16 2:00 AM — Jul 31 2:00 AM, Finse, Weather by CustomWeather, © 2016

Note: Actual official high and low records may vary slightly from our data, if they occured in-between our weather recording intervals... More about our weather records

Advertising

Finse Weather History for the Previous 24 Hours

Scroll right to see more
 ConditionsComfort  
Time TempWeatherWind HumidityBarometerVisibility
2:00 AM
Sun, Jul 31
42 °FQuite cool.6 mph88%29.70 "HgN/A
1:00 AM43 °FQuite cool.7 mph88%29.70 "HgN/A
12:00 AM42 °FQuite cool.6 mph87%29.70 "HgN/A
11:00 PM
Sat, Jul 30
43 °FQuite cool.7 mph89%29.70 "HgN/A
10:00 PM43 °FQuite cool.5 mph89%29.69 "HgN/A
9:00 PM44 °FQuite cool.6 mph86%29.69 "HgN/A
8:00 PM44 °FQuite cool.7 mph86%29.69 "HgN/A
7:00 PM44 °FQuite cool.8 mph84%29.69 "HgN/A
6:00 PM45 °FQuite cool.8 mph86%29.68 "HgN/A
5:00 PM46 °FCool.6 mph82%29.68 "HgN/A
4:00 PM46 °FCool.7 mph78%29.67 "HgN/A
3:00 PM47 °FCool.7 mph81%29.66 "HgN/A
2:00 PM47 °FCool.7 mph71%29.65 "HgN/A
1:00 PM46 °FCool.5 mph75%29.66 "HgN/A
12:00 PM45 °FCool.7 mph77%29.66 "HgN/A
11:00 AM44 °FQuite cool.7 mph83%29.67 "HgN/A
10:00 AM44 °FQuite cool.7 mph83%29.68 "HgN/A
9:00 AM42 °FQuite cool.7 mph89%29.69 "HgN/A
8:00 AM43 °FQuite cool.6 mph89%29.67 "HgN/A
7:00 AM43 °FQuite cool.5 mph89%29.68 "HgN/A
6:00 AM43 °FQuite cool.7 mph91%29.67 "HgN/A
5:00 AM43 °FQuite cool.6 mph95%29.67 "HgN/A
4:00 AM43 °FQuite cool.7 mph95%29.67 "HgN/A
3:00 AM44 °FQuite cool.6 mph94%29.67 "HgN/A
Weather by CustomWeather, © 2016

See weather overviewHow to use our weather pages